星链-4471 (STARLINK-4471 )

导读

STARLINK-4471是美国SpaceX星链星座的卫星,于2022年8月31日发射升空,归属于美国。星链项目旨在打造全球卫星互联网星座,该卫星入轨后参与提供全球范围的高速互联网接入服务,补充星链星座的网络覆盖能力,推动全球卫星互联网组网进程。

Basic Information
目录编号:
53664
目录名称:
STARLINK-4471
国际标识:
2022-105S
轨道中心:
EARTH
卫星名称:
星链-4471
卫星全名:
星链-4471 (STARLINK-4471 )
卫星状态:
在轨 (已飞行1476 天)
发射日期:
2022-08-31 UTC
国别 :
美国 (US)
星等 :
--
This satellite is enrolled in the Space Conjunction Data Service (SCDS) and the current flight risk assessment level is: No High Risk
Orbit Information
数据来源 国际轨道数据
星历时间: 2026-09-15T22:55:51+0800
8小时前
查看轨道信息
半长轴: 6843.698km
偏心率: 0.0001734
轨道倾角: 97.284°
近地点辐角 90.887°
升交点赤经 135.459°
平近点角 269.257°
近地点: 464.374km
远地点: 466.748km
周期: 93.907分钟
每日圈数: 15.334392
Detailed Information
固有亮度:
5
最大亮度:
2.5
卫星平台:
Starlink v1.5
覆盖范围:
全球
运营商:
太空探索技术公司
运营商所在国:
美国
制造商(研发单位):
太空探索技术公司
制造商所在国:
美国
使用方式:
暂无
Satellite Introduction
星链(Starlink)计划是由太空探索技术公司(SpaceX)提出的一个巨型低轨卫星互联网星座项目,计划在2019年至2024年间在太空搭建由约1.2万颗卫星组成的“星链”网络,其中1584颗将部署在地球上空550千米处的近地轨道,并从2020年开始工作。该卫星仍在工作。
2D Orbit Map
3D Orbit Map
Orbit Altitude Analysis Chart
Orbit Inclination Analysis Chart
Orbit Comprehensive Analysis Chart
View Comprehensive Chart
Conjunction Data List
Event ID Objects TCA Miss Dist (km) Collision Risk Probability Collision Risk Index (CRI) Action
CDM_260917-234205-366406-544021
2026-09-17T
23:42:37+0000
0.606 km
远距离
5.142131E-5 中风险 0.69
CDM_260916-153905-366405-701423
OBJECT L (57014)
2026-09-16T
15:39:27+0000
0.951 km
远距离
3.00905E-5 中风险 0.65
CDM_260917-063504-309905-366423
2026-09-17T
06:35:31+0000
1.061 km
极远距离
2.198373E-5 中风险 0.62
CDM_260917-212105-366406-544021
2026-09-17T
21:21:40+0000
1.409 km
极远距离
3.174236E-6 低风险 0.45
CDM_260915-225604-975705-366421
2026-09-15T
22:56:41+0000
2.004 km
极远距离
2.769449E-6 低风险 0.44
CDM_260915-173004-847405-366421
2026-09-15T
17:30:42+0000
2.162 km
极远距离
2.120851E-6 低风险 0.42
CDM_260916-095405-366406-996721
2026-09-16T
09:54:38+0000
2.292 km
极远距离
2.024222E-6 低风险 0.41
CDM_260917-064705-227305-366422
2026-09-17T
06:47:45+0000
2.478 km
极远距离
1.777323E-6 低风险 0.4
CDM_260917-232805-366406-996721
2026-09-17T
23:28:10+0000
2.465 km
极远距离
1.77249E-6 低风险 0.4
CDM_260916-152204-812105-366421
2026-09-16T
15:22:15+0000
2.860 km
极远距离
1.395767E-6 低风险 0.38
Miss Distance Evolution Trend with All Objects Subscribe to Flight Safety Assessment
Collision Probability Evolution Trend with All Objects Subscribe to Flight Safety Assessment